Flag Weather past 2 weeks in Augusta, Georgia, U.S.A.

Now
34 °F

Sunny.


Feels Like: 30 °F
Forecast: 31 / 48 °F
Wind: 5 mph from North

Location: Daniel Field

Current Time: Nov 28, 2014 at 9:01:43 AM

Latest Report: Nov 28, 2014 at 7:53 AM


Visibility: 10 mi

Pressure: 30.39 "Hg

Humidity: 73%

Dew point: 26 °F

Location of AugustaLocation

Historic Weather in Augusta — Graph

°F

Augusta temperature yesterday

Maximum temperature yesterday: 54 °F (at 3:53 PM)
Minimum temperature yesterday: 40 °F (at 11:53 PM)
Average temperature yesterday: 47 °F

Past Weeks' High & Low Weather Summary

 TemperatureHumidityPressure
High73 °F (Nov 24, 12:53 PM)100% (Nov 17, 7:53 AM)30.51 "Hg (Nov 17, 7:53 AM)
Low25 °F (Nov 19, 5:53 AM)17% (Nov 19, 3:53 PM)29.70 "Hg (Nov 17, 1:53 PM)
Average50 °F61%30.15 "Hg
* Reported Nov 13 7:53 AM — Nov 28 7:53 AM, Augusta, Weather by CustomWeather, © 2014

Note: Actual official high and low records may vary slightly from our data, if they occured in-between our weather recording intervals... More about our weather records

Advertising

Augusta weather history for previous 24 hours

 ConditionsComfort  
Time TempWeatherWind HumidityBarometerVisibility
7:53 AM
Nov 28
34 °FSunny.5 mph73%30.39 "Hg10 mi
6:53 AM32 °FClear.No wind79%30.37 "Hg10 mi
5:53 AM33 °FClear.3 mph78%30.36 "Hg10 mi
4:53 AM34 °FClear.No wind76%30.36 "Hg10 mi
3:53 AM35 °FClear.5 mph72%30.34 "Hg10 mi
2:53 AM36 °FClear.3 mph70%30.34 "Hg10 mi
1:53 AM38 °FClear.5 mph65%30.33 "Hg10 mi
12:53 AM39 °FClear.8 mph62%30.32 "Hg10 mi
11:53 PM
Nov 27
40 °FClear.10 mph60%30.32 "Hg10 mi
10:53 PM41 °FClear.10 mph58%30.32 "Hg10 mi
9:53 PM42 °FClear.9 mph55%30.32 "Hg10 mi
8:53 PM43 °FClear.10 mph56%30.30 "Hg10 mi
7:53 PM45 °FClear.9 mph51%30.29 "Hg10 mi
6:53 PM47 °FClear.10 mph48%30.27 "Hg10 mi
5:53 PM49 °FClear.10 mph43%30.24 "Hg10 mi
4:53 PM52 °FSunny.10 mph38%30.21 "Hg10 mi
3:53 PM54 °FPartly sunny.12 mph38%30.19 "Hg10 mi
2:53 PM53 °FSunny.17 mph39%30.19 "Hg10 mi
1:53 PM53 °FPassing clouds.18 mph39%30.18 "Hg10 mi
12:53 PM53 °FScattered clouds.20 mph38%30.18 "Hg10 mi
11:53 AM52 °FPassing clouds.18 mph38%30.19 "Hg10 mi
10:53 AM51 °FSunny.15 mph39%30.19 "Hg10 mi
9:53 AM49 °FSunny.13 mph48%30.18 "Hg10 mi
Weather by CustomWeather, © 2014

See weather overviewHow to use our weather pages